Lexington Weather

Lexington, Massachusetts, USA

36°F
1/28/2020 6:04am 
  • Lexington Conditions: Overcast
  • Temperature: 36.1°F / 2.3°C 
  • Dew Point: 29.7°F 
  • Relative Humidity: 77
  • Wind: Wind from NNW NNW 2 mph, 10-min avg: 1 mph, gust: 4 mph
  • Barometer: 29.65 inRising 0.02  inHg/hr Rising Slowly
  • Visibility: 10 miles
  • Rain Today: 0.00 in
  •   

Regional Weather Roundup
for Boston / Norton, MA

        
000
ASUS41 KBOX 271910
RWRBOX

REGIONAL WEATHER ROUNDUP
NATIONAL WEATHER SERVICE BOSTON/NORTON MA
200 PM EST MON JAN 27 2020

NOTE:  "FAIR" INDICATES FEW OR NO CLOUDS BELOW 12,000 FEET WITH NO 
SIGNIFICANT WEATHER AND/OR OBSTRUCTIONS TO VISIBILITY.

MAZALL-272000-
EASTERN MASSACHUSETTS
  
CITY           SKY/WX    TMP DP  RH WIND       PRES   REMARKS
BOSTON         PTSUNNY   47  27  45 W16       29.53F                  
BEVERLY        CLOUDY    44  27  51 W13G21    29.52F                  
LAWRENCE       PTSUNNY   42  26  53 W9        29.54F                  
BEDFORD        FAIR      46  25  43 W10G23    29.53F                  
BLUE HILL        N/A     41  26  55 W18G28    29.51F                  
NORWOOD        PTSUNNY   47  26  44 W18       29.55F                  
MARSHFIELD     FAIR      46  28  49 W9G18     29.54F                  
PLYMOUTH       PTSUNNY   45  29  53 W10       29.54F                  
TAUNTON        PTSUNNY   45  27  49 W10G17    29.55F                  
NEW BEDFORD    FAIR      44  28  53 W13       29.56F                  
$$

MAZALL-272000-
CAPE COD AND THE ISLANDS
  
CITY           SKY/WX    TMP DP  RH WIND       PRES   REMARKS
FALMOUTH       MOSUNNY   45  28  53 W18       29.55F                  
HYANNIS        FAIR      45  28  51 W15       29.54F                  
CHATHAM        CLOUDY    43  33  68 SW10G21   29.56F                  
PROVINCETOWN   FAIR      45  33  63 W12       29.55F                  
NANTUCKET      PTSUNNY   44  34  67 W16       29.58F                  
MARTHAS VNYRD  FAIR      44  31  60 W15G22    29.57F                  
$$
 
MAZALL-272000-
CENTRAL AND WESTERN MASSACHUSETTS
  
CITY           SKY/WX    TMP DP  RH WIND       PRES   REMARKS
WORCESTER      CLOUDY    37  27  67 W10       29.53F WCI  30          
FITCHBURG      CLOUDY    41  27  57 W8        29.55F                  
ORANGE         PTSUNNY   41  27  57 NW10      29.56F                  
SPRINGFIELD    CLOUDY    41  27  57 W10       29.57F                  
WESTFIELD      CLOUDY    41  27  57 W7        29.58F                  
NORTH ADAMS    CLOUDY    39  27  62 W12       29.57F WCI  32          
PITTSFIELD     CLOUDY    37  27  67 W12G22    29.55F WCI  29          
$$
 
RIZALL-272000-
RHODE ISLAND
  
CITY           SKY/WX    TMP DP  RH WIND       PRES   REMARKS
PROVIDENCE     PTSUNNY   45  28  51 W12       29.57F                  
NEWPORT        CLOUDY    44  27  51 VRB6G17   29.57F                  
BLOCK ISLAND   FAIR      43  32  65 W14G25    29.60F                  
SMITHFIELD     CLOUDY    42  28  57 W15G21    29.55F                  
WESTERLY       CLOUDY    44  32  62 W13G24    29.60F                  
$$
 
CTZALL-272000-
CONNECTICUT
  
CITY           SKY/WX    TMP DP  RH WIND       PRES   REMARKS
BRADLEY INTL   CLOUDY    42  28  57 W10       29.59F                  
HARTFORD       CLOUDY    44  28  53 W10G18    29.60F                  
BRIDGEPORT     CLOUDY    42  33  70 SW15      29.63F                  
DANBURY        CLOUDY    41  26  55 W6        29.63F                  
GROTON         CLOUDY    41  33  73 W12G21    29.60F                  
NEW HAVEN      CLOUDY    43  32  65 SW7G16    29.61F                  
CHESTER        NOT AVBL                                               
MERIDEN        CLOUDY    43  28  55 VRB7      29.61F                  
WILLIMANTIC    PTSUNNY   44  28  53 W8        29.59F                  
OXFORD         CLOUDY    41  28  60 W9        29.61S                  
$$

MEZ002-015-021-024-NHZ003-005-008-011-012-014-VTZ005-008-272000-
NORTHERN NEW ENGLAND
  
CITY           SKY/WX    TMP DP  RH WIND       PRES   REMARKS
PORTLAND ME    CLOUDY    45  28  51 W13       29.48F                  
BANGOR ME      CLOUDY    41  31  67 W3        29.45S                  
CONCORD NH     CLOUDY    42  26  53 W8G18     29.51F                  
MANCHESTER NH  PTSUNNY   43  26  51 W6        29.51F                  
NASHUA NH      PTSUNNY   43  27  53 W7G16     29.54F                  
PORTSMOUTH NH  PTSUNNY   44  24  45 W8        29.49F                  
JAFFREY NH     CLOUDY    39  25  57 W9        29.52F                  
KEENE NH       CLOUDY    40  27  59 W5        29.55S                  
BURLINGTON VT  FLURRIES  36  33  89 VRB3      29.56F                  
MT. WASHINGTON SNOW      16  16 100 W37         N/A  VSB 0   WCI  -6  
$$

NYZ052-076-272000-
EASTERN NEW YORK
  
CITY           SKY/WX    TMP DP  RH WIND       PRES   REMARKS
ALBANY         CLOUDY    41  28  60 W12       29.62S                  
NEW YORK CITY  CLOUDY    43  28  55 W12       29.65F                  
$$
 
ANZALL-272000-
MARINE OBSERVATIONS
  
STATION/POSITION TIME  TEMP    WIND        PRES    VSBY  WAVE
                       AIR SEA DIR/SP/G                  HT/PER
                 (UTC) (F)     (DEG/KT/KT) (MB)    (MI)  (FT/S)
BOSTON BUOY      1850   42 43  260/ 16/ 17  999.4F         2/ 9
BUZZARDS BAY     NOT AVBL
NANTUCKET SOUND  1840                      1001.5F
MASS BAY-STELLWA 1804   41 41  280/ 14/ 16  998.1F  1 7/8  4/11
ISLE OF SHOALS   1800   42     260/ 11/ 12  999.2F
S OF BLOCK IS    1900      44                N/A           6/ 7
$$

......................KEY.........................
  SKY/WX - SKY CONDITION/PRESENT WEATHER
  TMP    - TEMPERATURE IN FAHRENHEIT
  DWPT   - DEWPOINT IN FAHRENHEIT
  RH     - RELATIVE HUMIDITY IN PERCENT
  WIND   - DIRECTION AND SPEED IN MPH
  PRES   - MEAN SEA LEVEL PRESSURE IN INCHES OF HG
  WCI    - WIND CHILL INDEX
  VSB    - VISIBILITY IN MILES
  HX     - HEAT INDEX
  TC     - TEMPERATURE IN CELSIUS
  VRB    - VARIABLE WIND DIRECTION
  N/A    - NOT AVAILABLE
  
      

Other recent Regional Weather Roundups

Tue Jan 28, 5:10am

Tue Jan 28, 5:00am

Tue Jan 28, 4:10am

Tue Jan 28, 4:00am

Tue Jan 28, 3:10am

Tue Jan 28, 3:01am

Tue Jan 28, 2:10am

Tue Jan 28, 2:00am

Tue Jan 28, 1:10am

Tue Jan 28, 1:00am

Tue Jan 28, 12:10am

Tue Jan 28, 12:01am

Mon Jan 27, 11:10pm

Mon Jan 27, 11:00pm

Mon Jan 27, 10:10pm

Mon Jan 27, 10:00pm

Mon Jan 27, 9:10pm

Mon Jan 27, 9:00pm

Mon Jan 27, 8:10pm

Mon Jan 27, 8:01pm

Mon Jan 27, 7:10pm

Mon Jan 27, 7:00pm

Mon Jan 27, 6:10pm

Mon Jan 27, 6:00pm

Mon Jan 27, 5:10pm

Mon Jan 27, 5:00pm

Mon Jan 27, 4:10pm

Mon Jan 27, 4:00pm

Mon Jan 27, 3:10pm

Mon Jan 27, 3:00pm

Mon Jan 27, 2:00pm

Mon Jan 27, 1:10pm

Mon Jan 27, 1:00pm

Mon Jan 27, 12:10pm

Mon Jan 27, 12:00pm

Mon Jan 27, 11:10am

Mon Jan 27, 11:01am

Mon Jan 27, 10:10am

Mon Jan 27, 10:00am

Mon Jan 27, 9:10am

Mon Jan 27, 9:00am

Mon Jan 27, 8:10am

Mon Jan 27, 8:00am

Mon Jan 27, 7:10am

Mon Jan 27, 7:00am

Mon Jan 27, 6:10am

Mon Jan 27, 6:00am

Mon Jan 27, 5:10am

Mon Jan 27, 5:00am

Mon Jan 27, 4:10am

Mon Jan 27, 4:01am

Mon Jan 27, 3:10am

Mon Jan 27, 3:00am

Mon Jan 27, 2:10am

Mon Jan 27, 2:00am

Mon Jan 27, 1:10am

Mon Jan 27, 1:00am

Mon Jan 27, 12:10am

Mon Jan 27, 12:00am

Sun Jan 26, 11:10pm

Sun Jan 26, 11:00pm

Sun Jan 26, 10:10pm

Sun Jan 26, 10:00pm

Sun Jan 26, 9:10pm

Sun Jan 26, 9:01pm

Sun Jan 26, 8:10pm

Sun Jan 26, 8:00pm

Sun Jan 26, 7:10pm

Sun Jan 26, 7:00pm

Sun Jan 26, 6:10pm

Sun Jan 26, 6:01pm

Sun Jan 26, 5:10pm

Sun Jan 26, 5:01pm

Sun Jan 26, 4:10pm

Sun Jan 26, 4:00pm

Sun Jan 26, 3:10pm

Sun Jan 26, 3:01pm

Sun Jan 26, 2:10pm

Sun Jan 26, 2:01pm

Sun Jan 26, 1:10pm

Sun Jan 26, 1:00pm

Sun Jan 26, 12:10pm

Sun Jan 26, 12:00pm

Sun Jan 26, 11:10am

Sun Jan 26, 11:01am

Sun Jan 26, 10:10am

Sun Jan 26, 10:01am

Sun Jan 26, 9:10am

Sun Jan 26, 9:00am

Sun Jan 26, 8:10am

Sun Jan 26, 8:00am

Sun Jan 26, 7:10am

Sun Jan 26, 7:00am

Sun Jan 26, 6:10am

Sun Jan 26, 6:00am

Sun Jan 26, 5:10am

Sun Jan 26, 5:00am

Sun Jan 26, 4:10am

Sun Jan 26, 4:01am

Sun Jan 26, 3:10am

Sun Jan 26, 3:01am

Sun Jan 26, 2:10am

Sun Jan 26, 2:00am

Sun Jan 26, 1:10am

Sun Jan 26, 1:00am

Sun Jan 26, 12:10am

Sun Jan 26, 12:00am

Sat Jan 25, 11:10pm

Sat Jan 25, 11:00pm

Sat Jan 25, 10:10pm

Sat Jan 25, 10:01pm

Sat Jan 25, 9:10pm

Sat Jan 25, 9:01pm

Sat Jan 25, 8:10pm

Sat Jan 25, 8:01pm

Sat Jan 25, 7:10pm

Sat Jan 25, 7:01pm

Sat Jan 25, 6:10pm

Sat Jan 25, 6:01pm

Sat Jan 25, 5:10pm

Sat Jan 25, 5:01pm

Sat Jan 25, 4:10pm

Sat Jan 25, 4:00pm

Sat Jan 25, 3:10pm

Sat Jan 25, 3:01pm

Sat Jan 25, 2:10pm

Sat Jan 25, 2:00pm

Sat Jan 25, 1:10pm

Sat Jan 25, 1:00pm

Sat Jan 25, 12:10pm

Sat Jan 25, 12:00pm

Sat Jan 25, 11:10am

Sat Jan 25, 11:00am

Sat Jan 25, 10:10am

Sat Jan 25, 10:00am

Sat Jan 25, 9:10am

Sat Jan 25, 9:00am

Sat Jan 25, 8:10am

Sat Jan 25, 8:01am

Sat Jan 25, 7:10am

Sat Jan 25, 7:00am

Sat Jan 25, 6:10am

Sat Jan 25, 6:00am

Meta data:

ID: d7392426-cbb6-47bd-9e68-daec75fc09c4
Link: https://api.weather.gov/products/d7392426-cbb6-47bd-9e68-daec75fc09c4